Home > Weather > Fort Smith > Past weeks

Flag for Canada Past Weather in Fort Smith, Northwest Territories, Canada — Yesterday and Last 2 Weeks

Now
50 °F

Partly sunny.


Feels Like: 49 °F
Forecast: 46 / 60 °F
Wind: 3 mph from Southeast

Location: Fort Smith

Current Time: May 26, 2016 at 10:43:31 PM

Latest Report: May 26, 2016 at 10:00 PM


Visibility: 15 mi

Pressure: 30.02 "Hg

Humidity: 58%

Dew Point: 36 °F

Location of Fort SmithLocation

Past Weather in Fort Smith — Graph

°F

Fort Smith Temperature Yesterday

Maximum temperature yesterday: 55 °F (at 5:00 PM)
Minimum temperature yesterday: 41 °F (at 6:00 AM)
Average temperature yesterday: 47 °F

High & Low Weather Summary for the Past Weeks

 TemperatureHumidityPressure
High79 °F (May 15, 5:00 PM)100% (May 21, 3:00 AM)30.54 "Hg (May 21, 3:00 AM)
Low30 °F (May 12, 6:00 AM)18% (May 15, 7:00 PM)29.71 "Hg (May 24, 4:00 PM)
Average51 °F60%30.02 "Hg
* Reported May 11 9:00 PM — May 26 9:00 PM, Fort Smith, Weather by CustomWeather, © 2016

Note: Actual official high and low records may vary slightly from our data, if they occured in-between our weather recording intervals... More about our weather records

Advertising

Fort Smith Weather History for the Previous 24 Hours

Scroll right to see more
 ConditionsComfort  
Time TempWeatherWind HumidityBarometerVisibility
9:00 PM
Thu, May 26
54 °FPartly sunny.6 mph51%30.01 "Hg15 mi
8:00 PM54 °FPartly sunny.8 mph51%30.01 "Hg15 mi
7:00 PM54 °FPartly sunny.12 mph51%30.01 "Hg15 mi
6:00 PM55 °FPartly sunny.8 mph44%30.02 "Hg15 mi
5:00 PM55 °FScattered clouds.10 mph47%30.03 "Hg15 mi
4:00 PM54 °FScattered clouds.6 mph51%30.03 "Hg15 mi
3:00 PM52 °FSprinkles. Partly sunny.7 mph54%30.04 "Hg15 mi
2:00 PM48 °FSprinkles. Broken clouds.5 mph62%30.05 "Hg15 mi
1:50 PM48 °FSprinkles. Broken clouds.6 mph62%30.06 "Hg15 mi
1:00 PM48 °FBroken clouds.5 mph62%30.06 "Hg15 mi
12:00 PM46 °FBroken clouds.6 mph66%30.06 "Hg15 mi
11:00 AM45 °FPartly sunny.6 mph71%30.07 "Hg15 mi
10:00 AM43 °FOvercast.5 mph76%30.08 "Hg15 mi
9:00 AM43 °FOvercast.5 mph76%30.08 "Hg15 mi
8:00 AM41 °FOvercast.6 mph81%30.08 "Hg15 mi
7:00 AM39 °FPartly sunny.6 mph87%30.08 "Hg15 mi
6:45 AM39 °FPartly sunny.6 mph87%30.08 "Hg15 mi
6:00 AM39 °FPartly sunny.6 mph81%30.08 "Hg15 mi
5:00 AM37 °FPassing clouds.6 mph87%30.08 "Hg15 mi
4:00 AM37 °FPassing clouds.6 mph87%30.08 "Hg15 mi
3:00 AM39 °FPassing clouds.3 mph87%30.08 "Hg15 mi
2:00 AM39 °FPassing clouds.2 mph87%30.08 "Hg15 mi
1:00 AM43 °FPassing clouds.5 mph76%30.08 "Hg15 mi
12:00 AM43 °FPassing clouds.3 mph76%30.07 "Hg15 mi
11:00 PM
Wed, May 25
45 °FPassing clouds.5 mph76%30.06 "Hg15 mi
10:00 PM48 °FPassing clouds.7 mph66%30.06 "Hg15 mi
Weather by CustomWeather, © 2016

See weather overviewHow to use our weather pages